Stations météo

réclame
Mon MeteoGroup
Feldberg/Mecklenburg, Allemagne (10282): Température de l'air & dewpoint: 11.02.2019 15:00:00 - 17.02.2019 15:00:00 (CET)Feldberg/Mecklenburg, Allemagne (10282): Température de l'air 5cm & Température de l'air -5cm: 11.02.2019 15:00:00 - 17.02.2019 15:00:00 (CET)Feldberg/Mecklenburg, Allemagne (10282): Température de l'air -20cm & Température de l'air -100cm: 11.02.2019 15:00:00 - 17.02.2019 15:00:00 (CET)Feldberg/Mecklenburg, Allemagne (10282): Vitesse du vent & gusts: 11.02.2019 15:00:00 - 17.02.2019 15:00:00 (CET)Feldberg/Mecklenburg, Allemagne (10282): Direction du vent: 11.02.2019 15:00:00 - 17.02.2019 15:00:00 (CET)Feldberg/Mecklenburg, Allemagne (10282): reduced air pressure: 11.02.2019 15:00:00 - 17.02.2019 15:00:00 (CET)Feldberg/Mecklenburg, Allemagne (10282): visibility: 11.02.2019 15:00:00 - 17.02.2019 15:00:00 (CET)Feldberg/Mecklenburg, Allemagne (10282): Ensoleillement: 11.02.2019 15:00:00 - 17.02.2019 15:00:00 (CET)Feldberg/Mecklenburg, Allemagne (10282): Quantités de précipitations: 11.02.2019 15:00:00 - 17.02.2019 15:00:00 (CET)
Date & Time tt [°C] td [°C] tt 5cm [°C] tt -5cm [°C] tt -20cm [°C] tt -100cm [°C] ff [km/h] ff [knt] fx [km/h] fx [knt] dd ppp [hPa] vv [km] sd [min] rr [mm]
17.02.2019 15:00:00 12,3 5,5 13,4 10,8 4,8 4,1 6 3 14 7 WSW 1023,5 14 60 0,0
17.02.2019 14:00:00 11,7 5,5 13,3 10,2 4,1 4,1 4 2 11 6 WSW 1024,0 19 60 0,0
17.02.2019 13:00:00 11,0 5,8 13,1 8,5 3,5 4,1 8 5 13 7 W 1024,5 20 32 0,0
17.02.2019 12:00:00 9,0 5,3 10,0 5,9 3,1 4,1 8 4 11 6 SW 1025,2 13 0 0,0
17.02.2019 11:00:00 7,4 4,3 8,1 4,7 2,8 4,1 8 4 11 6 SSW 1025,3 13 0 0,0
17.02.2019 10:00:00 6,0 3,5 6,5 3,5 2,6 4,1 4 2 6 3 WSW 1025,4 12 0 0,0
17.02.2019 09:00:00 4,7 2,0 5,0 2,4 2,6 4,1 4 2 11 6 WSW 1025,3 12 0 0,0
17.02.2019 08:00:00 3,9 1,3 3,7 1,7 2,5 4,1 7 4 13 7 WSW 1025,1 11 0 0,0
17.02.2019 07:00:00 3,0 0,5 2,3 1,2 2,6 4,1 9 5 13 7 WSW 1024,8 13 0 0,0
17.02.2019 06:00:00 2,4 0,2 1,5 0,8 2,7 4,1 6 3 10 6 WSW 1024,9 16 0 0,0
17.02.2019 05:00:00 2,8 0,0 0,9 0,8 2,8 4,1 3 1 11 6 SSW 1024,8 16 0 0,0
17.02.2019 04:00:00 2,7 -0,3 0,7 0,7 3,0 4,1 4 2 9 5 SW 1024,6 17 0 0,0
17.02.2019 03:00:00 2,5 -0,2 0,8 0,7 3,3 4,1 7 4 12 6 WSW 1024,7 18 0 0,0
17.02.2019 02:00:00 2,8 -0,1 -0,6 1,0 3,5 4,1 5 3 13 7 SW 1024,5 20 0 0,0
17.02.2019 01:00:00 2,7 -0,2 -0,2 1,4 3,8 4,1 11 6 14 8 WSW 1024,5 20 0 0,0
17.02.2019 00:00:00 4,9 0,3 2,0 1,8 4,1 4,1 13 7 18 10 W 1024,3 23 0 0,0
16.02.2019 23:00:00 4,8 0,3 2,0 2,2 4,3 4,1 12 7 18 10 W 1024,3 24 0 0,0
16.02.2019 22:00:00 6,1 0,5 4,0 2,7 4,6 4,1 16 8 20 11 W 1024,1 28 0 0,0
16.02.2019 21:00:00 5,5 0,8 2,5 3,1 5,0 4,1 13 7 16 9 WSW 1024,0 28 0 0,0
16.02.2019 20:00:00 3,7 0,4 0,5 3,9 5,3 4,1 10 5 13 7 WSW 1024,2 26 0 0,0
16.02.2019 19:00:00 5,7 1,0 2,5 5,0 5,5 4,1 9 5 16 8 WSW 1023,9 32 0 0,0
16.02.2019 18:00:00 7,8 1,3 4,7 6,3 5,6 4,1 11 6 21 11 WSW 1023,6 33 0 0,0
16.02.2019 17:00:00 11,1 1,3 8,8 7,9 5,4 4,1 14 8 25 13 SW 1023,2 36 57 0,0
16.02.2019 16:00:00 13,1 1,4 13,3 9,4 5,0 4,1 15 8 29 15 SW 1023,2 42 60 0,0
16.02.2019 15:00:00 14,1 0,6 14,8 10,0 4,4 4,1 17 9 31 17 SW 1023,4 37 60 0,0
16.02.2019 14:00:00 13,6 -0,3 14,5 9,5 3,7 4,1 20 11 29 16 WSW 1023,9 34 60 0,0
16.02.2019 13:00:00 12,8 -0,3 14,0 8,5 3,0 4,1 18 10 28 15 WSW 1024,3 34 60 0,0
16.02.2019 12:00:00 11,6 -0,6 12,9 6,7 2,4 4,1 21 12 31 17 WSW 1024,6 29 60 0,0
16.02.2019 11:00:00 9,2 0,1 10,9 3,9 2,1 4,1 10 5 17 9 SSW 1025,1 23 60 0,0
16.02.2019 10:00:00 5,9 0,0 6,4 0,6 2,2 4,1 8 5 16 9 WSW 1025,7 25 60 0,0
16.02.2019 09:00:00 3,6 -0,6 3,5 0,4 2,3 4,1 9 5 15 8 SW 1026,2 26 58 0,0
16.02.2019 08:00:00 1,8 -1,0 -0,1 0,4 2,4 4,0 9 5 14 8 SW 1026,4 21 0 0,0
16.02.2019 07:00:00 1,6 -1,0 -1,2 0,5 2,5 4,0 7 4 13 7 SW 1026,3 25 0 0,0
16.02.2019 06:00:00 1,9 -0,9 -1,5 0,6 2,6 4,0 10 5 12 7 SSW 1026,7 25 0 0,0
16.02.2019 05:00:00 2,5 -0,7 -0,9 0,6 2,7 4,0 8 4 10 6 SW 1027,3 26 0 0,0
16.02.2019 04:00:00 3,1 -0,7 -0,7 0,7 2,9 4,0 4 2 9 5 SW 1027,7 24 0 0,0
16.02.2019 03:00:00 2,8 -0,7 -0,8 0,7 3,1 4,0 7 4 10 5 SW 1028,2 23 0 0,0
16.02.2019 02:00:00 2,2 -1,1 -2,0 0,6 3,3 4,0 3 2 12 6 SW 1029,0 23 0 0,0
16.02.2019 01:00:00 3,8 -1,1 -0,7 0,9 3,6 4,0 9 5 14 8 SW 1029,4 28 0 0,0
16.02.2019 00:00:00 4,7 -1,4 1,7 1,2 3,9 4,0 12 6 14 8 WSW 1029,9 31 0 0,0
15.02.2019 23:00:00 4,1 -1,3 0,7 1,6 4,3 4,0 10 5 16 8 SW 1030,0 30 0 0,0
15.02.2019 22:00:00 5,0 -0,9 1,6 2,1 4,7 4,0 11 6 16 9 SW 1030,4 35 0 0,0
15.02.2019 21:00:00 2,5 -0,8 -2,0 2,7 5,1 4,0 3 1 5 3 SSW 1031,0 19 0 0,0
15.02.2019 20:00:00 4,7 -0,2 -1,1 3,7 5,4 4,0 0 0 9 5 N 1031,3 26 0 0,0
15.02.2019 19:00:00 5,8 0,7 0,5 4,9 5,7 4,0 2 1 10 5 SW 1031,6 28 0 0,0
15.02.2019 18:00:00 5,0 1,0 2,2 6,4 5,8 4,0 8 5 13 7 SW 1031,9 38 0 0,0
15.02.2019 17:00:00 9,8 1,9 7,1 8,2 5,6 4,0 8 5 10 5 S 1031,7 48 58 0,0
15.02.2019 16:00:00 12,5 0,9 12,8 9,7 5,2 4,0 7 4 13 7 SW 1031,9 70 60 0,0
15.02.2019 15:00:00 12,9 -1,4 14,1 10,2 4,6 4,0 8 4 14 8 SW 1032,4 42 60 0,0
15.02.2019 14:00:00 11,9 -1,8 13,0 9,7 3,9 4,0 13 7 16 9 WSW 1032,8 36 60 0,0
15.02.2019 13:00:00 11,2 -0,3 12,8 8,9 3,1 4,0 8 4 11 6 WSW 1033,4 23 60 0,0
15.02.2019 12:00:00 9,9 1,3 12,1 6,9 2,5 4,0 6 3 16 9 WSW 1033,7 17 60 0,0
15.02.2019 11:00:00 6,8 1,9 9,1 3,9 2,3 3,9 5 3 13 7 SW 1034,1 12 60 0,0
15.02.2019 10:00:00 3,9 0,3 4,8 0,9 2,3 3,9 10 5 13 7 WSW 1034,4 10 60 0,0
15.02.2019 09:00:00 2,7 -0,5 2,4 0,5 2,4 3,9 5 3 18 10 SSW 1034,0 9 53 0,0
15.02.2019 08:00:00 3,6 -0,5 1,6 0,5 2,5 3,9 10 5 21 12 WNW 1033,8 8 0 0,0
15.02.2019 07:00:00 2,8 -0,6 0,9 0,5 2,7 3,9 16 8 20 11 WNW 1033,4 8 0 0,0
15.02.2019 06:00:00 2,8 -0,5 0,8 0,6 2,8 3,9 12 7 19 10 WNW 1033,4 8 0 0,0
15.02.2019 05:00:00 1,2 -1,0 -0,9 0,6 3,0 3,9 12 7 24 13 W 1033,6 8 0 0,0
15.02.2019 04:00:00 1,3 -0,9 -0,7 0,7 3,2 3,9 16 8 19 10 W 1033,5 11 0 0,0
15.02.2019 03:00:00 1,6 -0,8 -0,4 0,7 3,4 3,8 15 8 19 10 W 1033,7 15 0 0,0
15.02.2019 02:00:00 1,6 -0,4 -0,3 0,6 3,7 3,8 13 7 16 8 W 1034,1 14 0 0,0
15.02.2019 01:00:00 1,4 -0,1 -1,3 0,9 4,0 3,8 8 4 15 8 WSW 1034,1 11 0 0,0
15.02.2019 00:00:00 2,1 0,5 0,0 1,4 4,4 3,8 11 6 15 8 W 1034,0 12 0 0,0
14.02.2019 23:00:00 2,6 1,0 0,5 1,9 4,8 3,8 12 7 16 9 W 1033,8 11 0 0,0
14.02.2019 22:00:00 2,9 1,3 0,7 2,4 5,2 3,8 14 8 17 9 W 1033,7 11 0 0,0
14.02.2019 21:00:00 2,4 1,2 -0,1 3,0 5,6 3,8 12 7 14 8 W 1033,9 9 0 0,0
14.02.2019 20:00:00 2,0 0,9 -0,8 3,9 6,0 3,7 5 3 7 4 W 1033,9 7 0 0,0
14.02.2019 19:00:00 2,9 1,9 -0,2 5,0 6,4 3,7 6 4 8 4 WSW 1034,2 8 0 0,0
14.02.2019 18:00:00 4,7 3,0 1,7 6,4 6,6 3,7 6 3 10 5 WSW 1033,9 9 0 0,0
14.02.2019 17:00:00 7,4 3,9 5,8 8,0 6,6 3,7 10 5 18 10 WSW 1033,7 11 52 0,0
14.02.2019 16:00:00 9,1 3,7 9,4 9,5 6,4 3,7 16 9 25 14 WSW 1033,7 12 60 0,0
14.02.2019 15:00:00 9,0 4,1 10,4 10,3 6,0 3,7 14 8 23 12 WSW 1033,9 11 59 0,0
14.02.2019 14:00:00 8,1 3,8 9,6 10,3 5,5 3,7 17 9 22 12 WSW 1034,3 12 54 0,0
14.02.2019 13:00:00 8,2 4,2 10,7 9,4 5,1 3,7 16 9 26 14 WSW 1034,8 11 53 0,0
14.02.2019 12:00:00 8,2 4,3 10,1 8,6 4,7 3,7 17 9 28 15 WSW 1034,6 11 58 0,0
14.02.2019 11:00:00 6,9 4,5 8,6 6,2 4,6 3,7 21 11 28 15 WSW 1034,6 9 9 0,0
14.02.2019 10:00:00 5,9 4,3 6,0 5,2 4,6 3,6 19 10 26 14 WSW 1034,8 6 0 0,0
14.02.2019 09:00:00 5,7 4,3 5,6 4,9 4,6 3,6 17 9 24 13 WSW 1034,9 6 0 0,0
14.02.2019 08:00:00 5,6 4,6 5,3 4,9 4,6 3,6 15 8 19 11 WSW 1034,9 4,5 0 0,0
14.02.2019 07:00:00 5,8 4,6 5,5 5,1 4,7 3,6 13 7 21 12 WSW 1034,2 4,5 0 0,0
14.02.2019 06:00:00 6,1 4,8 5,8 5,2 4,7 3,6 10 5 22 12 W 1033,9 4,1 0 0,0
14.02.2019 05:00:00 6,3 5,1 5,9 5,4 4,7 3,6 16 9 23 13 W 1033,7 4,0 0 0,0
14.02.2019 04:00:00 6,6 5,4 6,2 5,5 4,7 3,6 16 9 29 15 W 1033,4 3,8 0 0,0
14.02.2019 03:00:00 6,6 5,8 6,3 5,6 4,6 3,6 15 8 31 17 W 1033,1 2,9 0 0,0
14.02.2019 02:00:00 6,8 6,1 6,4 5,6 4,6 3,6 19 10 29 16 W 1033,1 2,8 0 0,0
14.02.2019 01:00:00 6,6 6,4 6,4 5,6 4,6 3,6 15 8 31 17 W 1032,9 1,7 0 0,0
14.02.2019 00:00:00 6,6 6,3 6,4 5,6 4,5 3,6 20 11 32 17 W 1032,3 2,1 0 0,0
13.02.2019 23:00:00 6,6 6,3 6,3 5,6 4,5 3,6 19 10 34 18 W 1032,1 2,0 0 0,0
13.02.2019 22:00:00 6,8 6,2 6,5 5,6 4,5 3,6 23 12 35 19 W 1032,2 4,2 0 0,0
13.02.2019 21:00:00 6,9 6,3 6,5 5,6 4,4 3,6 24 13 37 20 W 1031,7 4,4 0 0,0
13.02.2019 20:00:00 7,0 6,4 6,8 5,6 4,4 3,6 21 11 32 18 W 1031,5 4,0 0 0,0
13.02.2019 19:00:00 7,1 6,3 6,9 5,6 4,3 3,6 20 11 31 17 W 1031,1 6 0 0,0
13.02.2019 18:00:00 7,4 5,9 7,1 5,6 4,3 3,6 19 11 31 17 W 1031,1 8 0 0,0
13.02.2019 17:00:00 7,6 5,7 7,1 5,9 4,1 3,6 19 11 35 19 W 1030,5 9 0 0,0
13.02.2019 16:00:00 7,9 5,5 7,7 6,2 3,9 3,6 20 11 36 19 W 1030,6 11 0 0,0
13.02.2019 15:00:00 8,0 5,7 8,1 6,2 3,7 3,6 24 13 37 20 W 1030,3 12 0 0,0
13.02.2019 14:00:00 7,7 6,0 7,7 5,9 3,4 3,6 22 12 45 25 W 1029,7 10 0 0,0
13.02.2019 13:00:00 7,3 5,8 7,3 5,6 3,1 3,6 29 15 46 25 W 1029,0 8 0 0,0
13.02.2019 12:00:00 6,9 5,7 6,7 5,1 2,9 3,6 29 16 42 23 W 1028,8 7 0 0,0
13.02.2019 11:00:00 6,2 5,6 6,0 4,5 2,6 3,6 30 16 42 23 W 1028,3 4,3 0 0,0
13.02.2019 10:00:00 5,5 5,0 5,3 3,7 2,5 3,6 27 15 40 21 W 1028,2 3,0 0 0,0
13.02.2019 09:00:00 5,1 4,6 4,8 3,3 2,3 3,6 28 15 39 21 W 1028,2 2,5 0 0,0
13.02.2019 08:00:00 4,9 4,2 4,5 2,8 2,2 3,6 27 14 40 21 W 1027,8 3,1 0 0,0
13.02.2019 07:00:00 4,4 3,7 4,0 2,5 2,0 3,6 23 12 36 19 W 1027,5 3,1 0 0,0
13.02.2019 06:00:00 4,2 3,0 3,8 2,2 1,9 3,6 27 14 38 21 WSW 1027,4 4,1 0 0,0
13.02.2019 05:00:00 4,0 2,7 3,5 1,9 1,8 3,6 23 13 34 18 W 1028,1 4,5 0 0,0
13.02.2019 04:00:00 3,4 2,4 2,9 1,5 1,8 3,6 20 11 29 16 WSW 1027,6 5 0 0,0
13.02.2019 03:00:00 2,8 1,9 2,2 1,0 1,8 3,6 17 9 24 13 WSW 1028,5 7 0 0,0
13.02.2019 02:00:00 1,9 1,2 1,5 0,7 1,8 3,6 16 9 23 12 WSW 1029,3 11 0 0,0
13.02.2019 01:00:00 1,5 0,5 1,0 0,5 1,9 3,6 16 9 20 11 WSW 1029,5 23 0 0,2
13.02.2019 00:00:00 1,0 -0,6 0,4 0,5 2,0 3,6 13 7 17 9 WSW 1030,4 11 0 0,3
12.02.2019 23:00:00 0,9 -1,9 0,4 0,5 2,2 3,6 10 5 15 8 WSW 1030,1 21 0 0,0
12.02.2019 22:00:00 0,5 -3,5 0,2 0,6 2,4 3,6 10 5 16 9 WSW 1030,3 59 0 0,0
12.02.2019 21:00:00 0,2 -3,8 -0,3 0,6 2,6 3,6 11 6 15 8 W 1030,2 59 0 0,0
12.02.2019 20:00:00 0,2 -3,9 -1,2 0,7 2,9 3,6 10 5 16 8 W 1030,1 60 0 0,0
12.02.2019 19:00:00 1,5 -4,3 -0,1 1,0 3,1 3,6 14 8 19 10 W 1029,9 64 0 0,0
12.02.2019 18:00:00 1,8 -4,1 0,3 2,1 3,3 3,6 11 6 16 9 W 1029,5 68 0 0,0
12.02.2019 17:00:00 3,2 -3,6 2,0 3,4 3,3 3,6 11 6 26 14 WNW 1028,9 64 44 0,0
12.02.2019 16:00:00 4,1 -3,8 4,9 4,9 3,1 3,6 17 9 32 17 NW 1028,7 47 60 0,0
12.02.2019 15:00:00 4,4 -3,1 5,7 5,7 2,7 3,6 21 12 32 17 W 1028,2 35 60 0,0
12.02.2019 14:00:00 4,1 -3,8 5,8 5,7 2,2 3,6 20 11 39 21 WNW 1027,8 35 60 0,0
12.02.2019 13:00:00 4,0 -2,5 6,8 4,6 1,8 3,6 19 10 36 20 NW 1027,1 26 58 0,0
12.02.2019 12:00:00 3,0 -2,4 4,9 3,3 1,5 3,6 22 12 39 21 NW 1026,7 32 55 0,0
12.02.2019 11:00:00 2,5 -1,5 3,7 1,1 1,5 3,6 20 11 36 19 NW 1026,3 37 57 0,0
12.02.2019 10:00:00 2,0 -1,8 2,8 0,2 1,5 3,6 18 10 28 15 WNW 1025,2 42 42 0,0
12.02.2019 09:00:00 1,2 -1,8 1,1 0,3 1,5 3,6 16 9 27 14 WNW 1024,6 39 24 0,0
12.02.2019 08:00:00 1,1 -1,6 0,4 0,3 1,6 3,6 15 8 30 16 WNW 1023,7 43 0 0,0
12.02.2019 07:00:00 1,4 -1,5 1,0 0,3 1,6 3,6 19 11 31 17 WNW 1022,7 43 0 0,0
12.02.2019 06:00:00 1,4 -1,7 0,5 0,3 1,7 3,6 19 11 44 24 NW 1021,8 45 0 0,0
12.02.2019 05:00:00 1,8 -1,5 1,1 0,3 1,7 3,6 25 14 46 25 WNW 1021,0 47 0 0,0
12.02.2019 04:00:00 2,0 -1,4 1,6 0,3 1,8 3,6 26 14 43 23 WNW 1020,6 45 0 0,0
12.02.2019 03:00:00 1,9 -1,6 1,5 0,3 1,9 3,5 21 11 41 22 WNW 1020,2 45 0 0,0
12.02.2019 02:00:00 1,7 -1,8 0,9 0,4 2,0 3,5 24 13 49 26 WNW 1019,5 43 0 0,0
12.02.2019 01:00:00 1,8 -2,0 1,0 0,4 2,1 3,5 24 13 41 22 WNW 1019,2 40 0 0,0
12.02.2019 00:00:00 1,5 -2,6 0,4 0,4 2,2 3,5 22 12 41 22 WNW 1018,5 47 0 0,0
11.02.2019 23:00:00 1,8 -2,5 0,6 0,4 2,3 3,5 20 11 42 23 WNW 1017,6 44 0 0,0
11.02.2019 22:00:00 2,0 -2,0 1,0 0,5 2,5 3,5 22 12 37 20 WNW 1017,1 48 0 0,0
11.02.2019 21:00:00 2,4 -2,5 1,1 0,3 2,8 3,5 20 11 32 17 WNW 1016,6 67 0 0,0
11.02.2019 20:00:00 2,4 -2,4 1,1 0,5 3,1 3,5 19 10 35 19 WNW 1015,9 68 0 0,0
11.02.2019 19:00:00 2,6 -2,7 1,3 1,0 3,4 3,5 19 10 45 24 WNW 1014,6 70 0 0,0
11.02.2019 18:00:00 3,1 -2,4 1,7 1,8 3,6 3,5 24 13 54 29 NW 1012,7 65 0 0,0
11.02.2019 17:00:00 3,7 -2,2 2,8 3,1 3,7 3,5 31 17 47 26 NW 1011,0 58 0 0,0
11.02.2019 16:00:00 3,6 -0,6 3,4 3,5 3,8 3,5 17 9 54 29 NW 1009,6 64 0 0,0
11.02.2019 15:00:00 3,9 -1,1 3,8 4,2 3,7 3,5 27 15 57 31 WNW 1008,1 69 0 0,0

tt = Température de l'air
td = dewpoint
tt 5cm = Température de l'air 5cm
tt -5cm = Température de l'air -5cm
tt -20cm = Température de l'air -20cm
tt -100cm = Température de l'air -100cm
ff = Vitesse du vent
fx = gusts
dd = Direction du vent
ppp = reduced air pressure
vv = visibility
sd = Ensoleillement
rr = Quantités de précipitations

stations d'obs. à proximité